Volver al catálogo

ONEWEB-0596

ActivoComunicacionesPO
NORAD 54662·PAYLOAD·🇬🇧 United Kingdom

Lanzado Dec 8, 2022 desde Cape Canaveral Space Force Station

Loading…

Próximos Pases (próximas 24 horas)

TLE

ActualizadoSource: CelesTrak SupGP

Época: Sep 15, 2026, 00:43 UTC

1 54662C 22166W   26258.03005046 -.00003663  00000+0 -88790-2 0  2582
2 54662  87.9272 226.0995 0002042  82.5162  30.1130 13.21829704    11

Sigue ONEWEB-0596 en tiempo real con AllMySat

Download on the App Store